Weather History for KLCK - November, 2013

Change the Weather History Date:

Wednesday, November 6, 2013

  Actual Average Record
Temperature  
Mean Temperature 58 °F -  
Max Temperature 70 °F 54 °F 74 °F (2008)
Min Temperature 47 °F 36 °F 27 °F (2012)
Degree Days  
Heating Degree Days 6    
Growing Degree Days 8 (Base 50)    
Moisture  
Dew Point 43 °F    
Average Humidity 60    
Maximum Humidity 87    
Minimum Humidity 35    
Precipitation  
Precipitation 0.00 in - - ()
Sea Level Pressure  
Sea Level Pressure 30.07 in    
Wind  
Wind Speed 9 mph (SSW)    
Max Wind Speed 23 mph    
Max Gust Speed 33 mph    
Visibility 10 miles    
Events Rain    
Averages and records for this station are not official NWS values.
T = Trace of Precipitation, MM = Missing Value Source: NWS Daily Summary

Daily Weather History Graph

Daily Weather History Graph

Search for Another Location

Airport or City:

Trip Planner

Search our weather history database for the weather conditions in past years. The results will help you decide how hot, cold, wet, or windy it might be!

Date:

Astronomy

Nov. 06, 2013 Rise Set
Actual Time 7:06 AM EST 5:23 PM EST
Civil Twilight 6:38 AM EST 5:52 PM EST
Nautical Twilight 6:05 AM EST 6:24 PM EST
Astronomical Twilight 5:34 AM EST 6:55 PM EST
Moon 10:20 AM EST (11/6) 8:27 PM EST (11/6)
Length of Visible Light 11h 14m
Length of Day
10h 17m
Waxing Crescent, 13% of the Moon is Illuminated
Nov 6
Waxing Crescent
Nov 10
First Quarter
Nov 17
Full
Nov 25
Last Quarter
Dec 2
New

Hourly Weather History & Observations

Time (EST) Temp. Dew Point Humidity Pressure Visibility Wind Dir Wind Speed Gust Speed Precip Events Conditions
12:15 AM 49.3 °F 34.2 °F 56% 30.25 in 10.0 mi SE 3.5 mph - N/A   Clear
12:35 AM 48.4 °F 34.0 °F 58% 30.24 in 10.0 mi SE 4.6 mph - N/A   Clear
12:55 AM 48.2 °F 33.6 °F 57% 30.24 in 10.0 mi SE 3.5 mph - N/A   Clear
1:35 AM 47.8 °F 33.6 °F 58% 30.22 in 10.0 mi Calm Calm - N/A   Clear
1:55 AM 48.2 °F 33.1 °F 56% 30.21 in 10.0 mi South 3.5 mph - N/A   Clear
2:15 AM 48.2 °F 33.1 °F 56% 30.21 in 10.0 mi South 4.6 mph - N/A   Clear
2:35 AM 48.6 °F 33.6 °F 56% 30.21 in 10.0 mi South 6.9 mph - N/A   Clear
2:55 AM 48.4 °F 34.0 °F 58% 30.20 in 10.0 mi South 6.9 mph - N/A   Clear
3:15 AM 48.9 °F 33.8 °F 56% 30.20 in 10.0 mi South 8.1 mph - N/A   Clear
3:35 AM 49.3 °F 33.6 °F 55% 30.20 in 10.0 mi South 8.1 mph - N/A   Clear
3:55 AM 48.9 °F 33.8 °F 56% 30.19 in 10.0 mi South 6.9 mph - N/A   Clear
4:15 AM 48.4 °F 33.8 °F 57% 30.19 in 10.0 mi South 5.8 mph - N/A   Clear
4:35 AM 48.0 °F 33.8 °F 58% 30.19 in 10.0 mi South 8.1 mph - N/A   Clear
4:55 AM 48.7 °F 33.4 °F 56% 30.19 in 10.0 mi South 8.1 mph - N/A   Scattered Clouds
5:15 AM 48.9 °F 34.0 °F 56% 30.18 in 10.0 mi South 9.2 mph - N/A   Scattered Clouds
5:35 AM 49.8 °F 33.8 °F 54% 30.17 in 10.0 mi South 10.4 mph - N/A   Scattered Clouds
5:55 AM 50.5 °F 33.6 °F 52% 30.17 in 10.0 mi South 10.4 mph - N/A   Scattered Clouds
6:15 AM 51.8 °F 33.6 °F 50% 30.16 in 10.0 mi South 9.2 mph - N/A   Mostly Cloudy
6:35 AM 53.1 °F 33.4 °F 47% 30.16 in 10.0 mi South 9.2 mph - N/A   Overcast
6:55 AM 53.4 °F 33.3 °F 46% 30.15 in 10.0 mi South 9.2 mph - N/A   Overcast
7:15 AM 53.8 °F 32.9 °F 45% 30.14 in 10.0 mi South 9.2 mph - N/A   Overcast
7:35 AM 54.3 °F 32.9 °F 44% 30.14 in 10.0 mi South 11.5 mph - N/A   Overcast
7:55 AM 54.7 °F 32.5 °F 43% 30.13 in 10.0 mi South 12.7 mph - N/A   Overcast
8:15 AM 55.2 °F 32.5 °F 42% 30.13 in 10.0 mi South 10.4 mph - N/A   Overcast
8:35 AM 55.8 °F 32.4 °F 41% 30.13 in 10.0 mi South 11.5 mph 16.1 mph N/A   Overcast
8:55 AM 56.3 °F 32.5 °F 41% 30.13 in 10.0 mi South 12.7 mph 17.3 mph N/A   Overcast
9:15 AM 57.2 °F 32.9 °F 40% 30.13 in 10.0 mi South 11.5 mph - N/A   Overcast
9:35 AM 59.0 °F 32.7 °F 37% 30.13 in 10.0 mi South 16.1 mph - N/A   Scattered Clouds
9:55 AM 60.6 °F 32.5 °F 35% 30.12 in 10.0 mi South 13.8 mph - N/A   Mostly Cloudy
10:15 AM 61.5 °F 33.4 °F 35% 30.11 in 10.0 mi South 16.1 mph - N/A   Overcast
10:35 AM 62.1 °F 34.0 °F 35% 30.11 in 10.0 mi South 15.0 mph 19.6 mph N/A   Overcast
10:55 AM 62.1 °F 34.2 °F 35% 30.11 in 10.0 mi South 15.0 mph - N/A   Overcast
11:15 AM 62.6 °F 34.9 °F 36% 30.10 in 10.0 mi South 16.1 mph 20.7 mph N/A   Overcast
11:35 AM 63.9 °F 37.2 °F 37% 30.09 in 10.0 mi South 15.0 mph 20.7 mph N/A   Overcast
11:55 AM 64.6 °F 38.5 °F 38% 30.09 in 10.0 mi South 13.8 mph 20.7 mph N/A   Overcast
12:15 PM 65.8 °F 40.1 °F 39% 30.07 in 10.0 mi South 15.0 mph 20.7 mph N/A   Overcast
12:35 PM 66.9 °F 41.4 °F 39% 30.06 in 10.0 mi South 15.0 mph - N/A   Overcast
12:55 PM 67.6 °F 43.0 °F 41% 30.04 in 10.0 mi SSW 12.7 mph 23.0 mph N/A   Overcast
1:15 PM 69.8 °F 46.0 °F 43% 30.03 in 10.0 mi SSW 23.0 mph 31.1 mph N/A   Mostly Cloudy
1:35 PM 70.3 °F 46.8 °F 43% 30.02 in 10.0 mi SSW 23.0 mph 28.8 mph N/A   Scattered Clouds
1:55 PM 70.5 °F 47.1 °F 43% 30.01 in 10.0 mi SSW 21.9 mph 33.4 mph N/A   Mostly Cloudy
2:15 PM 69.6 °F 47.1 °F 45% 30.01 in 10.0 mi SSW 18.4 mph 26.5 mph N/A   Overcast
2:35 PM 68.7 °F 47.1 °F 46% 30.00 in 10.0 mi SSW 17.3 mph 23.0 mph N/A   Overcast
2:55 PM 68.9 °F 48.0 °F 47% 29.99 in 10.0 mi SSW 18.4 mph 24.2 mph N/A   Overcast
3:15 PM 68.0 °F 51.1 °F 55% 29.99 in 10.0 mi SSW 13.8 mph 19.6 mph N/A Rain Light Rain
3:35 PM 65.7 °F 53.4 °F 65% 29.99 in 10.0 mi SW 11.5 mph - N/A Rain Light Rain
3:55 PM 64.0 °F 54.7 °F 72% 29.99 in 10.0 mi SW 12.7 mph 18.4 mph N/A Rain Light Rain
4:15 PM 63.1 °F 55.2 °F 75% 29.99 in 10.0 mi SW 9.2 mph - N/A Rain Light Rain
4:35 PM 62.4 °F 55.6 °F 78% 29.98 in 10.0 mi SW 6.9 mph - N/A   Overcast
4:55 PM 61.9 °F 55.6 °F 80% 29.98 in 10.0 mi SW 6.9 mph - N/A Rain Light Rain
5:15 PM 61.9 °F 55.4 °F 79% 29.98 in 10.0 mi SW 5.8 mph - N/A   Overcast
5:35 PM 61.5 °F 55.4 °F 80% 30.00 in 5.0 mi WSW 11.5 mph - N/A Rain Heavy Rain
5:55 PM 60.8 °F 55.9 °F 84% 29.99 in 5.0 mi WSW 11.5 mph - N/A Rain Rain
6:15 PM 60.4 °F 56.3 °F 86% 29.98 in 10.0 mi SSW 13.8 mph 19.6 mph N/A Rain Light Rain
6:35 PM 60.6 °F 56.5 °F 86% 29.99 in 10.0 mi SSW 15.0 mph 19.6 mph N/A   Overcast
6:55 PM 60.8 °F 56.5 °F 86% 29.99 in 10.0 mi SSW 11.5 mph - N/A   Overcast
7:15 PM 60.8 °F 56.5 °F 86% 29.98 in 10.0 mi SSW 11.5 mph - N/A Rain Light Rain
7:35 PM 60.8 °F 56.3 °F 85% 29.98 in 10.0 mi SSW 11.5 mph - N/A Rain Light Rain
7:55 PM 60.8 °F 56.3 °F 85% 29.98 in 10.0 mi SSW 9.2 mph - N/A Rain Rain
8:15 PM 60.6 °F 56.3 °F 86% 29.97 in 10.0 mi SSW 9.2 mph - N/A   Light Drizzle
8:35 PM 60.3 °F 56.3 °F 87% 29.96 in 10.0 mi SSW 8.1 mph - N/A Rain Light Rain
8:55 PM 60.3 °F 56.3 °F 87% 29.95 in 10.0 mi SSW 8.1 mph - N/A Rain Light Rain
9:15 PM 60.1 °F 56.3 °F 87% 29.96 in 10.0 mi SSW 8.1 mph - N/A Rain Light Rain
9:35 PM 60.1 °F 56.1 °F 87% 29.95 in 10.0 mi SW 9.2 mph 17.3 mph N/A Rain Light Rain
9:55 PM 59.9 °F 56.1 °F 87% 29.95 in 10.0 mi WSW 6.9 mph - N/A Rain Light Rain
10:15 PM 59.9 °F 55.8 °F 86% 29.96 in 10.0 mi West 6.9 mph - N/A Rain Light Rain
10:35 PM 59.5 °F 55.2 °F 86% 29.96 in 7.0 mi West 12.7 mph 19.6 mph N/A Rain Rain
10:55 PM 58.5 °F 54.0 °F 85% 29.96 in 10.0 mi West 9.2 mph - N/A Rain Light Rain
11:15 PM 58.1 °F 53.4 °F 84% 29.96 in 10.0 mi West 12.7 mph 18.4 mph N/A Rain Light Rain
11:35 PM 56.7 °F 51.6 °F 83% 29.98 in 7.0 mi WNW 21.9 mph 31.1 mph N/A Rain Rain
11:55 PM 52.7 °F 48.0 °F 84% 29.98 in 10.0 mi NW 13.8 mph 18.4 mph N/A Rain Light Rain